Wind_Speed
14 16 18 19 18 16 12 12 13 10 9 11 17 15 16 19 18 17 15 13 12 13 13 12 12 13 13 13 12 12 11 11 11 12 12 12 12 11 11 10 10 9 9 8 8 7 7 7 7
16 17 20 21 20 17 15 17 17 12 12 15 18 19 21 21 18 17 17 16 14 15 14 14 14 14 15 14 14 13 12 12 12 12 12 12 12 11 10 10 9 9 8 7 7 7 7 7 7
20 20 22 23 22 20 19 20 19 11 12 17 18 20 23 21 19 19 19 18 17 17 16 16 16 16 16 15 15 14 13 12 12 12 12 12 11 10 10 9 9 8 7 7 6 6 6 7 7
24 23 24 25 22 19 21 23 19 11 10 15 16 19 21 20 19 18 18 19 17 17 17 16 17 17 17 16 15 14 13 13 12 12 12 11 11 10 9 8 8 7 6 6 6 6 6 6 7
29 27 27 25 23 21 21 23 21 15 12 13 16 19 19 18 16 16 16 17 15 15 16 16 17 17 17 16 15 14 14 13 12 12 11 11 10 9 8 7 6 6 5 5 5 6 6 6 7
33 31 30 26 24 23 24 25 21 15 13 13 15 21 21 17 15 15 15 15 14 13 15 15 17 16 16 16 15 14 14 13 12 11 11 10 9 8 7 6 5 5 5 6 6 6 7 7 8
35 34 32 28 27 26 25 26 23 19 18 18 19 22 24 18 15 14 14 14 13 13 14 14 15 16 15 15 15 14 13 12 12 11 11 10 9 8 7 6 5 6 6 6 7 7 7 8 8
36 38 36 32 29 28 27 31 28 26 24 24 25 25 25 17 12 12 13 14 12 11 13 13 14 15 15 15 14 13 13 12 11 11 10 9 9 8 6 6 6 6 6 6 7 8 8 9 9
38 41 40 35 31 28 27 34 32 28 26 27 28 30 28 16 10 11 12 12 12 10 11 12 14 14 14 14 14 13 12 12 11 11 10 9 9 7 7 6 6 6 7 7 8 9 9 9 9
39 42 39 36 34 30 28 33 30 27 26 25 27 30 28 20 15 14 12 12 11 10 10 11 13 13 13 13 13 13 12 12 11 10 10 9 8 8 7 7 7 7 8 8 9 9 10 10 10
38 40 39 38 37 34 32 32 31 29 25 22 22 25 26 22 19 16 14 12 11 11 10 11 12 13 13 13 13 12 12 11 11 10 10 10 9 8 8 8 8 9 9 10 11 11 12 12 12
36 38 39 40 40 40 38 36 33 30 25 23 24 26 26 23 20 18 16 13 12 11 11 10 11 12 12 12 12 12 12 11 11 10 10 10 10 10 10 10 10 11 11 12 13 14 14 15 15
33 36 38 41 44 45 44 42 38 35 30 27 27 27 27 25 22 20 18 16 13 12 12 11 11 12 12 12 12 11 11 11 11 10 10 10 11 11 12 13 13 13 14 15 16 16 18 19 18
30 32 37 41 43 45 45 42 41 37 33 31 30 29 28 27 25 23 21 18 17 15 13 12 11 12 12 13 13 12 12 12 11 11 11 12 12 13 14 15 16 16 17 18 19 20 21 21 21
30 33 35 37 40 41 42 42 39 36 35 33 31 31 31 29 28 26 23 21 19 17 15 13 13 14 14 14 13 13 13 13 13 12 13 13 14 15 16 17 18 19 20 21 22 24 24 24 24
27 29 31 31 33 35 39 39 36 35 35 34 32 31 30 30 31 29 27 24 21 18 16 14 15 15 15 15 15 14 14 14 14 14 15 16 16 17 18 20 21 22 24 25 26 27 27 27 27
21 21 22 22 25 29 34 34 31 32 34 33 31 30 29 29 32 32 29 26 24 21 17 16 16 16 17 17 17 16 16 16 16 16 17 18 19 20 21 23 24 25 26 27 29 31 31 30 30
10 12 13 13 17 23 27 28 27 28 30 32 30 30 29 30 31 32 30 27 26 23 20 19 18 18 18 19 19 19 19 19 19 19 20 21 22 24 25 26 27 28 30 31 32 33 33 31 31
13 13 13 14 18 20 23 26 26 27 29 29 29 29 30 32 32 31 31 29 28 26 24 22 21 20 20 20 21 21 22 23 23 24 25 25 26 27 28 29 31 32 32 33 34 33 32 31 30
17 15 13 16 19 19 21 24 27 29 29 29 28 30 31 32 31 30 31 31 30 27 25 24 22 21 22 22 23 24 25 26 27 28 29 29 30 30 32 33 33 34 34 34 33 32 32 30 29
19 18 15 15 16 18 21 23 26 28 29 28 27 29 31 33 32 32 32 31 29 28 26 26 24 24 25 25 25 26 27 28 30 32 33 33 33 33 34 34 34 34 33 32 30 30 30 31 31
16 16 17 16 16 17 19 20 24 25 28 30 30 29 31 30 29 28 29 29 29 29 28 28 27 27 27 27 27 28 29 30 31 33 35 36 35 35 34 33 33 33 33 31 29 29 29 31 30
12 12 16 16 18 19 18 19 23 24 27 30 31 31 29 29 28 28 29 30 31 30 30 29 29 29 29 30 29 30 30 31 33 34 33 34 35 35 34 34 33 32 31 30 31 30 31 31 31
14 13 14 15 17 20 20 21 24 24 26 28 29 29 28 27 27 27 29 30 31 32 32 32 31 31 31 33 32 32 33 34 35 35 35 34 35 35 35 34 32 32 31 32 32 33 33 34 33
16 15 12 12 16 18 17 22 28 27 24 25 26 27 28 27 27 27 29 30 32 33 32 32 32 32 33 34 34 34 34 35 35 35 35 35 35 35 35 34 33 33 33 34 35 36 36 35 37
16 18 16 12 13 13 17 26 29 26 21 22 22 24 26 27 26 27 28 30 32 32 33 34 35 35 36 37 37 36 35 36 37 36 36 37 36 35 34 34 35 36 35 36 37 38 39 39 40
14 19 17 16 16 16 24 30 29 27 24 21 22 23 24 25 25 25 26 27 29 31 34 35 36 37 37 38 39 38 38 38 38 38 38 39 38 38 37 37 37 38 39 40 40 41 42 42 42
15 16 15 14 13 16 22 27 27 24 24 23 23 23 24 25 25 25 25 26 28 30 32 32 34 35 36 38 39 38 38 39 40 40 41 41 41 40 39 39 40 41 42 43 43 43 44 45 46
17 19 18 15 14 14 16 21 26 26 24 24 25 25 25 25 25 26 27 27 28 29 30 31 33 34 36 37 37 37 39 41 42 42 43 42 41 42 42 42 43 44 46 46 45 45 47 47 48
14 17 19 18 17 14 16 19 18 21 22 23 23 25 26 26 26 27 28 29 30 31 32 33 33 34 36 36 37 38 40 41 42 43 43 43 44 44 44 44 45 46 47 47 46 47 48 50 51
Wind_Direction
243 234 230 227 221 210 212 239 248 252 248 240 239 245 248 248 247 249 256 268 268 265 261 252 247 243 241 240 240 242 246 253 257 257 259 258 256 256 258 261 265 267 270 273 276 278 279 279 278
243 234 228 226 220 210 222 239 233 230 243 253 257 253 252 253 258 264 271 277 278 273 267 257 250 244 242 240 240 241 246 250 254 256 258 257 256 258 261 265 268 272 277 282 285 285 286 285 283
240 235 230 227 223 214 227 233 229 214 243 251 254 253 251 255 262 270 275 278 279 275 268 260 251 245 242 241 240 242 245 248 252 255 256 255 257 259 263 266 271 277 284 291 293 293 293 292 289
237 235 231 229 223 217 240 248 230 202 223 244 247 252 254 256 262 268 273 278 278 274 268 260 252 245 242 241 240 242 243 246 250 252 253 253 256 259 263 268 275 283 291 298 302 303 304 303 300
236 235 233 230 225 218 236 252 249 215 216 237 244 252 253 253 259 268 275 278 277 273 267 258 251 245 241 240 240 240 242 244 246 249 251 252 255 257 260 267 277 288 298 306 311 313 315 314 309
235 234 234 230 224 219 233 246 251 243 242 249 247 251 256 253 256 268 279 280 280 275 270 259 250 243 239 238 239 239 241 242 245 247 249 250 251 253 257 266 277 289 301 309 315 318 321 320 317
236 235 233 230 224 219 229 243 249 242 245 248 247 251 257 251 250 267 279 282 279 274 267 256 245 239 237 236 236 237 238 240 242 243 244 246 247 250 255 263 274 287 299 308 315 320 323 323 320
235 235 232 227 224 220 229 237 237 241 242 249 251 250 251 243 243 266 279 281 279 272 265 253 242 237 234 232 232 233 235 236 237 239 241 243 246 248 251 258 269 283 297 308 316 320 321 321 322
234 234 231 226 225 223 234 244 235 233 235 245 250 251 255 255 260 270 278 280 277 274 267 254 243 235 230 230 231 230 230 231 233 236 239 241 244 246 249 257 267 280 295 306 312 317 320 321 322
235 234 232 228 225 224 232 248 246 232 227 236 244 251 257 262 264 267 270 279 280 277 267 255 241 233 227 228 229 227 226 227 230 234 238 240 244 246 252 260 272 285 296 302 308 313 315 316 317
236 236 232 228 224 222 227 238 245 240 229 228 234 244 250 253 254 258 262 271 276 275 269 259 244 235 228 226 227 225 225 228 231 236 241 245 249 254 260 269 279 288 295 299 304 308 310 311 312
237 235 232 228 223 221 224 229 235 238 231 228 232 237 244 246 248 253 258 265 273 272 269 263 252 242 233 227 227 226 228 232 234 238 243 250 256 263 269 276 282 288 293 296 299 305 305 306 304
236 236 233 229 225 224 224 226 230 234 233 231 234 239 241 241 242 245 248 257 264 268 266 260 253 244 237 231 229 229 232 235 237 242 248 256 264 269 276 281 285 289 291 294 297 299 302 303 303
235 237 235 231 229 228 229 229 231 234 238 239 237 238 243 240 240 241 244 253 261 263 260 258 254 248 241 236 234 235 238 240 243 248 254 260 266 272 278 282 287 289 290 292 294 296 298 298 298
235 236 236 233 232 232 233 231 231 234 237 239 239 239 242 242 240 241 243 249 254 260 258 259 256 252 247 242 241 244 246 247 251 255 260 265 268 273 277 280 284 286 288 291 293 294 295 295 293
240 240 239 235 234 232 232 232 230 233 236 238 239 239 240 241 238 237 241 245 248 252 255 258 257 253 251 249 249 250 252 255 255 261 265 268 271 273 277 280 283 285 287 289 290 290 291 292 291
243 244 241 235 236 233 232 230 228 232 234 235 237 235 237 237 235 234 236 240 246 247 248 251 256 254 253 253 252 254 257 258 261 265 269 272 274 276 278 281 283 284 285 286 286 288 289 289 288
234 251 242 229 234 233 228 223 221 228 231 231 232 233 231 234 234 232 234 238 242 241 245 248 253 254 254 254 255 256 259 262 266 269 270 274 277 279 281 283 285 285 285 284 285 287 288 287 287
207 218 218 217 223 226 222 217 213 219 224 228 228 227 227 229 233 234 233 235 237 239 241 245 247 251 254 256 256 258 261 264 270 274 275 276 278 280 283 284 286 286 287 286 287 288 288 288 287
210 200 196 203 212 217 216 213 212 216 222 223 226 227 226 231 235 237 235 235 239 239 242 243 244 249 255 256 257 261 265 266 271 276 277 278 279 281 285 285 287 288 287 289 289 287 288 284 284
211 199 197 204 212 214 211 215 217 217 222 222 222 224 228 232 234 232 233 235 237 237 241 246 245 250 256 257 257 262 266 270 273 274 274 274 277 279 283 285 286 288 290 290 291 289 286 285 282
213 204 201 203 204 211 210 217 224 222 223 225 225 228 229 228 231 234 235 235 237 241 242 244 245 248 255 258 260 263 266 270 274 275 274 274 277 280 285 289 289 292 292 292 295 295 293 290 285
201 208 204 201 198 201 209 218 225 226 226 226 228 231 233 234 234 237 240 239 241 244 243 244 246 249 255 260 263 266 270 271 275 279 283 282 282 283 287 291 291 290 291 296 298 295 295 293 287
195 202 211 207 204 205 200 218 235 231 228 226 227 231 236 237 237 238 239 242 243 246 245 247 251 253 258 264 268 272 275 279 282 282 286 288 289 288 290 292 290 289 293 298 297 294 293 291 289
196 190 197 206 210 212 205 218 233 232 228 225 223 226 232 235 236 237 238 241 246 248 250 252 255 257 260 265 268 273 276 278 282 286 290 290 291 292 294 293 294 295 296 298 297 294 292 291 290
200 182 182 198 213 221 223 230 236 239 237 229 225 227 231 235 235 237 239 242 245 248 253 256 257 259 260 264 267 272 277 281 284 287 291 292 294 296 296 298 298 299 298 297 296 293 291 291 290
198 184 185 214 206 211 217 228 240 247 250 242 233 232 233 235 235 236 239 243 245 248 252 255 257 259 262 265 268 272 277 282 285 288 291 293 295 295 296 298 299 299 297 296 293 292 291 291 289
189 191 204 218 223 229 232 228 235 243 245 243 238 235 234 234 235 236 239 243 246 249 252 255 258 262 265 267 269 273 277 280 284 286 290 292 293 293 296 297 296 296 296 295 291 289 290 291 289
190 194 205 218 236 243 248 237 233 232 232 235 236 236 236 237 238 239 242 244 247 250 253 257 260 264 266 269 270 274 277 280 283 286 288 290 292 293 294 294 293 294 294 293 290 288 288 287 287
205 200 207 215 228 242 272 274 251 227 223 228 233 236 236 237 240 243 246 249 251 253 256 259 262 265 268 270 273 275 278 281 283 286 288 290 291 291 290 289 291 291 291 290 288 286 286 286 287
Height
5881 5882 5884 5886 5889 5891 5893 5893 5892 5891 5889 5891 5894 5893 5893 5893 5893 5895 5892 5892 5895 5895 5897 5897 5898 5898 5899 5899 5900 5901 5901 5902 5902 5903 5903 5903 5903 5903 5903 5903 5903 5903 5902 5902 5902 5902 5902 5902 5902
5879 5880 5882 5883 5885 5888 5890 5889 5889 5890 5889 5892 5893 5894 5892 5890 5890 5892 5892 5892 5894 5894 5895 5895 5896 5896 5897 5898 5898 5899 5900 5900 5901 5901 5902 5902 5902 5902 5902 5902 5902 5902 5902 5902 5902 5902 5902 5902 5901
5875 5876 5878 5880 5882 5884 5886 5885 5886 5885 5888 5890 5891 5891 5890 5890 5890 5891 5891 5891 5892 5892 5893 5893 5894 5894 5895 5896 5896 5897 5898 5899 5899 5900 5900 5900 5901 5901 5901 5901 5901 5901 5901 5901 5901 5901 5901 5901 5901
5871 5873 5874 5877 5879 5882 5882 5881 5882 5881 5886 5887 5889 5888 5888 5889 5889 5890 5890 5890 5891 5890 5890 5891 5891 5892 5893 5893 5894 5895 5896 5897 5898 5898 5899 5899 5900 5900 5900 5900 5900 5900 5900 5900 5900 5900 5901 5900 5900
5865 5868 5870 5872 5876 5880 5879 5878 5879 5878 5882 5884 5886 5885 5884 5886 5888 5888 5888 5888 5889 5888 5888 5889 5889 5890 5890 5891 5892 5893 5894 5895 5896 5897 5898 5898 5898 5899 5899 5899 5899 5899 5899 5899 5900 5900 5900 5900 5899
5860 5863 5865 5869 5873 5876 5877 5876 5877 5876 5879 5881 5884 5882 5882 5883 5885 5886 5886 5886 5886 5886 5886 5886 5887 5887 5888 5889 5890 5891 5892 5893 5895 5896 5896 5897 5897 5898 5898 5898 5898 5898 5899 5899 5899 5899 5899 5898 5898
5854 5857 5860 5865 5868 5872 5875 5873 5873 5875 5877 5880 5880 5879 5878 5880 5883 5883 5884 5883 5883 5884 5884 5884 5885 5885 5886 5887 5889 5890 5891 5892 5893 5894 5895 5896 5897 5897 5897 5898 5898 5898 5898 5898 5898 5898 5898 5897 5897
5847 5850 5853 5859 5863 5868 5871 5870 5871 5872 5874 5876 5877 5876 5875 5876 5878 5881 5882 5881 5881 5882 5882 5882 5883 5884 5885 5886 5887 5888 5889 5891 5892 5893 5894 5895 5896 5896 5896 5897 5897 5897 5897 5897 5897 5897 5896 5896 5895
5838 5842 5846 5853 5858 5863 5866 5863 5864 5866 5868 5872 5873 5872 5871 5873 5876 5879 5880 5880 5879 5880 5880 5881 5881 5882 5883 5884 5885 5886 5888 5890 5891 5892 5893 5894 5894 5895 5895 5896 5896 5896 5896 5896 5896 5896 5895 5895 5894
5830 5833 5841 5848 5852 5857 5860 5858 5857 5858 5862 5867 5869 5869 5869 5872 5875 5877 5878 5878 5878 5878 5878 5879 5880 5880 5882 5883 5884 5885 5887 5888 5890 5891 5892 5893 5893 5894 5894 5894 5894 5895 5895 5894 5894 5894 5894 5893 5893
5823 5827 5834 5839 5843 5848 5851 5852 5852 5853 5857 5862 5865 5865 5867 5870 5873 5874 5875 5876 5876 5877 5877 5878 5878 5879 5880 5882 5883 5884 5885 5887 5888 5890 5891 5891 5892 5892 5893 5893 5893 5893 5893 5893 5893 5892 5892 5892 5891
5816 5819 5824 5830 5834 5838 5842 5845 5847 5850 5854 5858 5860 5862 5864 5868 5870 5872 5874 5874 5875 5875 5875 5876 5877 5878 5879 5880 5881 5883 5884 5886 5887 5888 5889 5890 5891 5891 5891 5892 5892 5892 5892 5891 5891 5890 5890 5889 5889
5809 5813 5816 5821 5825 5829 5834 5838 5842 5845 5850 5854 5856 5858 5861 5865 5867 5870 5871 5872 5873 5873 5873 5874 5875 5877 5878 5879 5880 5881 5883 5884 5885 5887 5888 5889 5889 5889 5890 5889 5889 5889 5889 5889 5888 5888 5887 5886 5885
5803 5806 5809 5813 5817 5822 5827 5833 5837 5842 5846 5850 5852 5855 5857 5861 5864 5866 5867 5869 5870 5870 5871 5872 5874 5875 5876 5877 5878 5880 5881 5882 5884 5885 5886 5887 5887 5887 5887 5887 5887 5886 5886 5886 5885 5884 5883 5882 5881
5795 5798 5802 5806 5811 5817 5821 5827 5833 5839 5841 5845 5848 5851 5854 5856 5859 5861 5863 5865 5866 5867 5868 5870 5872 5873 5874 5876 5877 5878 5879 5880 5882 5882 5883 5884 5885 5885 5884 5884 5884 5883 5883 5882 5881 5880 5879 5878 5877
5790 5793 5797 5802 5806 5811 5816 5821 5829 5832 5836 5840 5843 5847 5850 5851 5854 5856 5859 5860 5861 5863 5865 5867 5869 5871 5872 5874 5875 5876 5877 5878 5878 5880 5880 5880 5881 5881 5881 5881 5881 5880 5879 5878 5877 5876 5875 5874 5873
5787 5790 5793 5799 5802 5805 5810 5817 5823 5826 5830 5834 5838 5841 5845 5846 5848 5849 5852 5855 5857 5860 5862 5864 5866 5868 5869 5871 5872 5873 5874 5875 5876 5876 5876 5876 5877 5877 5877 5877 5876 5875 5874 5873 5872 5870 5869 5868 5866
5786 5789 5793 5797 5800 5802 5806 5812 5817 5820 5824 5829 5832 5835 5839 5841 5842 5843 5846 5849 5853 5856 5859 5861 5862 5864 5866 5867 5868 5870 5870 5872 5872 5873 5873 5873 5873 5873 5872 5872 5871 5870 5869 5867 5866 5864 5863 5862 5860
5782 5786 5791 5796 5798 5799 5803 5808 5812 5815 5819 5823 5826 5829 5831 5834 5836 5838 5841 5843 5848 5852 5854 5856 5858 5860 5862 5863 5864 5866 5866 5867 5868 5869 5869 5869 5868 5868 5867 5867 5866 5864 5862 5861 5859 5857 5856 5855 5853
5778 5782 5787 5792 5794 5796 5799 5803 5806 5810 5815 5819 5822 5825 5827 5828 5831 5834 5836 5838 5843 5847 5849 5851 5853 5855 5857 5858 5859 5861 5861 5862 5863 5863 5863 5863 5862 5862 5861 5860 5859 5857 5856 5854 5853 5851 5850 5848 5847
5775 5779 5784 5788 5791 5793 5796 5800 5802 5807 5811 5814 5816 5818 5822 5822 5826 5827 5829 5831 5837 5840 5843 5846 5849 5851 5852 5853 5854 5855 5856 5857 5857 5857 5856 5856 5856 5854 5853 5852 5852 5851 5849 5847 5845 5844 5842 5841 5840
5773 5777 5780 5784 5788 5791 5795 5798 5799 5802 5806 5809 5811 5813 5815 5817 5820 5822 5823 5827 5832 5835 5838 5840 5843 5845 5846 5847 5849 5849 5850 5850 5850 5850 5849 5849 5849 5848 5846 5845 5844 5844 5843 5841 5839 5838 5836 5834 5832
5771 5775 5777 5781 5785 5789 5792 5795 5796 5797 5800 5803 5805 5808 5811 5814 5817 5819 5820 5824 5827 5830 5831 5834 5837 5839 5841 5842 5842 5842 5843 5843 5843 5843 5842 5842 5842 5841 5840 5838 5837 5837 5836 5834 5833 5832 5830 5828 5826
5768 5773 5776 5779 5783 5785 5789 5793 5791 5791 5793 5798 5801 5805 5807 5810 5813 5814 5817 5820 5823 5825 5826 5829 5831 5834 5835 5836 5836 5837 5837 5838 5837 5836 5836 5835 5834 5834 5833 5832 5830 5829 5828 5827 5826 5824 5823 5821 5819
5766 5771 5776 5779 5781 5784 5787 5788 5786 5785 5788 5792 5796 5800 5803 5806 5808 5810 5812 5815 5818 5820 5821 5823 5826 5828 5829 5830 5831 5831 5831 5831 5831 5830 5829 5828 5827 5826 5825 5825 5823 5822 5821 5819 5818 5816 5814 5812 5810
5764 5769 5774 5780 5783 5786 5787 5784 5782 5782 5785 5789 5792 5796 5799 5802 5804 5806 5808 5811 5813 5815 5817 5819 5820 5822 5823 5824 5824 5824 5825 5824 5823 5822 5822 5821 5820 5819 5817 5816 5815 5813 5812 5810 5809 5807 5805 5803 5801
5764 5767 5771 5773 5775 5779 5780 5779 5779 5781 5784 5787 5790 5793 5795 5798 5799 5801 5803 5805 5808 5810 5811 5813 5814 5816 5817 5817 5818 5818 5818 5817 5816 5815 5815 5813 5812 5811 5810 5808 5806 5804 5803 5801 5799 5797 5795 5793 5790
5763 5767 5770 5772 5772 5774 5774 5775 5776 5778 5780 5783 5786 5789 5791 5793 5795 5796 5798 5800 5802 5804 5805 5807 5808 5809 5809 5810 5810 5811 5811 5810 5809 5808 5807 5805 5804 5803 5801 5799 5797 5795 5793 5791 5789 5787 5784 5782 5780
5761 5765 5767 5770 5771 5771 5769 5770 5768 5771 5774 5777 5780 5783 5786 5788 5790 5792 5793 5795 5797 5798 5800 5801 5802 5802 5803 5803 5803 5803 5803 5802 5801 5800 5799 5797 5795 5793 5791 5789 5788 5785 5783 5781 5778 5776 5773 5770 5767
5760 5762 5765 5767 5768 5767 5766 5766 5758 5760 5767 5771 5775 5778 5780 5782 5785 5786 5788 5789 5791 5792 5793 5794 5795 5796 5796 5796 5796 5795 5795 5794 5793 5791 5790 5788 5786 5784 5782 5780 5778 5776 5773 5770 5768 5765 5762 5759 5756